N4AR Weather Reports


time (UTC)temp
F
wind
direction
speed
knots
gust
knots
rain 1hr
in
rain 24hr
in
rain mn
in
humidity
%
barometer
mb
20260505112021 60 87 1.7 2.6 0.00 0.00 0.00 70 1016.0
20260505111520 59 86 0.0 0.0 0.00 0.00 0.00 71 1015.9
20260505111016 59 44 1.7 1.7 0.00 0.00 0.00 71 1015.9
20260505110513 59 66 0.9 0.9 0.00 0.00 0.00 71 1015.9
20260505101945 59 16 1.7 1.7 0.00 0.00 0.00 72 1015.5
20260505101444 59 112 0.9 1.7 0.00 0.00 0.00 72 1015.4
20260505100940 59 80 0.0 0.0 0.00 0.00 0.00 72 1015.4
20260505100437 59 162 0.9 1.7 0.00 0.00 0.00 72 1015.4
20260505095933 59 75 0.9 0.9 0.00 0.00 0.00 72 1015.2
20260505095430 59 79 0.0 0.0 0.00 0.00 0.00 72 1015.2
20260505094926 59 78 0.9 0.9 0.00 0.00 0.00 72 1015.1
20260505094423 59 149 0.9 1.7 0.00 0.00 0.00 71 1015.3
20260505093919 59 88 1.7 2.6 0.00 0.00 0.00 71 1015.3
20260505093416 59 70 0.0 0.9 0.00 0.00 0.00 71 1015.1
20260505092913 59 81 0.0 0.9 0.00 0.00 0.00 71 1015.1
20260505092411 59 59 0.9 0.9 0.00 0.00 0.00 71 1015.1
20260505091908 59 101 0.9 0.9 0.00 0.00 0.00 71 1014.9
20260505091406 59 77 0.9 0.9 0.00 0.00 0.00 70 1015.0
20260505090904 60 58 0.9 0.9 0.00 0.00 0.00 70 1015.0
20260505090402 60 75 0.0 0.9 0.00 0.00 0.00 70 1014.8
20260505085859 60 119 0.9 0.9 0.00 0.00 0.00 69 1014.9
20260505085357 60 86 0.9 0.9 0.00 0.00 0.00 70 1014.8
20260505084855 60 91 0.9 0.9 0.00 0.00 0.00 69 1015.0
20260505084353 60 75 0.9 1.7 0.00 0.00 0.00 69 1015.0
20260505083850 60 75 0.0 0.0 0.00 0.00 0.00 68 1015.0
20260505083347 60 75 1.7 1.7 0.00 0.00 0.00 68 1014.9
20260505082844 60 80 0.0 0.0 0.00 0.00 0.00 68 1015.0
20260505082339 61 81 0.9 1.7 0.00 0.00 0.00 68 1014.7
20260505081836 61 24 1.7 1.7 0.00 0.00 0.00 68 1014.9
20260505081333 61 59 0.9 0.9 0.00 0.00 0.00 67 1014.8
20260505080830 61 83 0.9 0.9 0.00 0.00 0.00 67 1014.7
20260505080326 61 78 0.9 0.9 0.00 0.00 0.00 66 1014.7
20260505075821 61 75 0.9 0.9 0.00 0.00 0.00 67 1014.5
20260505075319 61 84 1.7 1.7 0.00 0.00 0.00 66 1014.6
20260505074816 61 81 0.0 0.9 0.00 0.00 0.00 65 1014.6
20260505074313 61 34 0.9 1.7 0.00 0.00 0.00 66 1014.7
20260505073810 62 90 0.9 1.7 0.00 0.00 0.00 66 1014.4
20260505073308 62 98 1.7 1.7 0.00 0.00 0.00 65 1014.6
20260505072805 62 56 1.7 2.6 0.00 0.00 0.00 65 1014.7
20260505072301 62 91 0.9 0.9 0.00 0.00 0.00 65 1014.5
20260505071757 62 52 0.9 0.9 0.00 0.00 0.00 65 1014.4
20260505071254 62 92 0.9 1.7 0.00 0.00 0.00 64 1014.5
20260505070751 62 39 0.9 0.9 0.00 0.00 0.00 64 1014.4
20260505070248 62 61 1.7 1.7 0.00 0.00 0.00 64 1014.4
20260505065743 62 62 0.0 0.9 0.00 0.00 0.00 63 1014.4
20260505065240 62 99 0.9 0.9 0.00 0.00 0.00 63 1014.4
20260505064737 62 169 0.9 0.9 0.00 0.00 0.00 63 1014.3
20260505064235 62 80 0.9 0.9 0.00 0.00 0.00 63 1014.4
20260505063732 63 75 0.9 0.9 0.00 0.00 0.00 63 1014.4
20260505063228 63 105 1.7 1.7 0.00 0.00 0.00 63 1014.6
20260505062725 63 63 1.7 2.6 0.00 0.00 0.00 63 1014.4
20260505062223 63 44 1.7 1.7 0.00 0.00 0.00 63 1014.4
20260505061719 63 76 0.9 0.9 0.00 0.00 0.00 62 1014.4
20260505061217 63 117 0.9 1.7 0.00 0.00 0.00 62 1014.5
20260505060714 63 182 0.9 2.6 0.00 0.00 0.00 62 1014.5
20260505060211 63 77 0.9 2.6 0.00 0.00 0.00 62 1014.6
20260505055706 63 107 0.9 1.7 0.00 0.00 0.00 62 1014.6
20260505055203 64 75 1.7 2.6 0.00 0.00 0.00 62 1014.6
20260505054700 64 25 0.9 1.7 0.00 0.00 0.00 62 1014.6
20260505054158 64 92 1.7 1.7 0.00 0.00 0.00 62 1014.6
20260505053656 64 68 0.9 0.9 0.00 0.00 0.00 62 1014.7
20260505053152 64 56 0.9 1.7 0.00 0.00 0.00 62 1014.6
20260505052649 64 1 1.7 2.6 0.00 0.00 0.00 62 1014.4
20260505052146 64 95 0.9 0.9 0.00 0.00 0.00 62 1014.6
20260505051643 64 172 0.9 1.7 0.00 0.00 0.00 62 1014.6
20260505051142 64 94 0.0 0.9 0.00 0.00 0.00 62 1014.5
20260505050639 64 48 0.9 0.9 0.00 0.00 0.00 61 1014.6
20260505050137 64 74 0.9 0.9 0.00 0.00 0.00 62 1014.7
20260505041607 65 76 0.9 0.9 0.00 0.00 0.00 60 1014.6
20260505041104 65 80 1.7 2.6 0.00 0.00 0.00 60 1014.7
20260505040601 65 81 0.0 0.9 0.00 0.00 0.00 60 1014.5
20260505040058 65 59 0.0 0.9 0.00 0.00 0.00 61 1014.6
20260505035555 65 82 1.7 2.6 0.00 0.00 0.00 61 1014.5
20260505035051 65 84 0.9 0.9 0.00 0.00 0.00 61 1014.6
20260505034548 65 131 0.9 1.7 0.00 0.00 0.00 61 1014.6
20260505034044 65 76 0.9 0.9 0.00 0.00 0.00 61 1014.4
20260505033542 65 81 0.9 1.7 0.00 0.00 0.00 61 1014.2
20260505033040 65 85 1.7 1.7 0.00 0.00 0.00 61 1014.4
20260505032537 65 10 1.7 2.6 0.00 0.00 0.00 62 1014.4
20260505032033 66 78 0.9 0.9 0.00 0.00 0.00 61 1014.4
20260505031531 66 125 0.9 0.9 0.00 0.00 0.00 61 1014.3
20260505031027 66 77 0.9 1.7 0.00 0.00 0.00 61 1014.4
20260505030524 66 251 1.7 1.7 0.00 0.00 0.00 61 1014.1
20260505030020 66 79 0.0 0.0 0.00 0.00 0.00 61 1014.3
20260505025516 66 99 1.7 2.6 0.00 0.00 0.00 62 1014.3
20260505025015 66 80 0.0 0.9 0.00 0.00 0.00 62 1014.1
20260505024511 66 65 0.9 1.7 0.00 0.00 0.00 62 1014.2
20260505024009 66 93 0.9 0.9 0.00 0.00 0.00 61 1014.2
20260505023506 66 42 0.0 1.7 0.00 0.00 0.00 61 1014.0
20260505023004 66 87 0.9 0.9 0.00 0.00 0.00 61 1014.2
20260505022501 67 83 0.9 1.7 0.00 0.00 0.00 59 1014.0
20260505021958 67 81 0.0 0.0 0.00 0.00 0.00 59 1014.0
20260505021454 67 47 0.9 1.7 0.00 0.00 0.00 58 1013.8
20260505020950 67 86 0.9 0.9 0.00 0.00 0.00 57 1014.0
20260505020445 67 91 0.9 0.9 0.00 0.00 0.00 57 1013.9
20260505015943 67 96 0.9 1.7 0.00 0.00 0.00 56 1013.7
20260505015440 67 64 0.9 2.6 0.00 0.00 0.00 54 1014.3
20260505014937 67 87 0.0 0.0 0.00 0.00 0.00 52 1013.8
20260505014434 66 77 0.9 0.9 0.00 0.00 0.00 51 1013.7
20260505013931 65 83 0.0 0.9 0.00 0.00 0.00 51 1013.9
20260505013428 64 80 0.0 0.0 0.00 0.00 0.00 51 1013.6
20260505012926 65 84 0.0 0.0 0.00 0.00 0.00 52 1013.7
20260505012423 65 84 0.0 0.0 0.00 0.00 0.00 50 1013.7
20260505011919 66 84 0.0 0.0 0.00 0.00 0.00 49 1013.7
20260505011416 66 84 0.0 0.0 0.00 0.00 0.00 48 1013.7
20260505010913 66 84 0.0 0.0 0.00 0.00 0.00 47 1013.5
20260505010408 66 83 0.0 0.0 0.00 0.00 0.00 47 1013.6
20260505005904 67 83 0.0 0.0 0.00 0.00 0.00 46 1013.5
20260505005401 67 83 0.0 0.0 0.00 0.00 0.00 45 1013.5
20260505004859 68 83 0.0 0.9 0.00 0.00 0.00 46 1013.4
20260505004355 68 83 0.0 0.0 0.00 0.00 0.00 43 1013.4
20260505003853 69 83 0.0 0.0 0.00 0.00 0.00 43 1013.3
20260505003350 69 83 0.0 0.0 0.00 0.00 0.00 41 1013.0
20260505002845 70 83 0.0 0.0 0.00 0.00 0.00 41 1013.0
20260505002342 70 84 0.0 0.0 0.00 0.00 0.00 41 1013.0
20260505001841 71 80 0.0 0.0 0.00 0.00 0.00 40 1013.2
20260505001337 71 84 0.0 0.0 0.00 0.00 0.00 40 1012.9
20260505000835 71 84 0.0 0.0 0.00 0.00 0.00 39 1012.8
20260505000333 72 85 0.0 0.0 0.00 0.00 0.00 39 1012.8
20260504235829 73 80 0.0 0.0 0.00 0.00 0.00 37 1013.1
20260504235326 73 89 0.0 0.9 0.00 0.00 0.00 36 1012.9
20260504234823 73 78 0.0 0.0 0.00 0.00 0.00 36 1012.8
20260504234320 73 82 0.0 0.0 0.00 0.00 0.00 36 1012.8
20260504233816 74 80 0.0 0.0 0.00 0.00 0.00 35 1012.8
20260504233313 74 84 0.0 0.0 0.00 0.00 0.00 35 1012.6
20260504232809 74 89 0.0 0.9 0.00 0.00 0.00 35 1012.5
20260504232307 75 81 0.0 0.0 0.00 0.00 0.00 35 1012.5
20260504231803 75 75 0.0 0.9 0.00 0.00 0.00 34 1012.7
20260504231300 75 78 0.9 0.9 0.00 0.00 0.00 34 1012.6
20260504230756 75 80 0.0 0.9 0.00 0.00 0.00 34 1012.5
20260504230254 76 89 0.9 0.9 0.00 0.00 0.00 33 1012.5
20260504225753 77 76 0.0 0.0 0.00 0.00 0.00 32 1012.6
20260504225248 78 69 0.0 0.9 0.00 0.00 0.00 32 1012.5
20260504224746 78 97 0.9 0.9 0.00 0.00 0.00 31 1012.6
20260504224243 79 84 1.7 1.7 0.00 0.00 0.00 30 1012.6
20260504223739 80 114 2.6 2.6 0.00 0.00 0.00 30 1012.4
20260504223235 80 112 0.9 0.9 0.00 0.00 0.00 30 1012.5
20260504222732 80 98 0.9 1.7 0.00 0.00 0.00 30 1012.4
20260504222229 79 83 0.9 0.9 0.00 0.00 0.00 30 1012.4
20260504221726 79 93 0.9 1.7 0.00 0.00 0.00 30 1012.4
20260504221223 78 74 0.0 0.9 0.00 0.00 0.00 30 1012.5
20260504220720 78 81 0.0 0.0 0.00 0.00 0.00 31 1012.5
20260504220218 78 60 1.7 1.7 0.00 0.00 0.00 32 1012.5
20260504215714 79 104 0.9 0.9 0.00 0.00 0.00 30 1012.5
20260504215211 80 80 0.0 0.0 0.00 0.00 0.00 28 1012.6
20260504214707 80 69 0.9 0.9 0.00 0.00 0.00 28 1012.6
20260504214203 80 74 0.0 0.9 0.00 0.00 0.00 28 1012.5
20260504213700 80 86 0.9 0.9 0.00 0.00 0.00 28 1012.8
20260504213157 80 39 1.7 2.6 0.00 0.00 0.00 27 1012.5
20260504212654 81 72 1.7 2.6 0.00 0.00 0.00 27 1012.5
20260504212150 82 38 0.9 1.7 0.00 0.00 0.00 27 1012.6
20260504211648 82 0 1.7 2.6 0.00 0.00 0.00 27 1012.4
20260504211144 82 75 0.9 0.9 0.00 0.00 0.00 28 1012.6
20260504210642 82 38 0.9 1.7 0.00 0.00 0.00 26 1012.6
20260504210138 82 82 0.0 0.9 0.00 0.00 0.00 27 1012.4
20260504205636 82 65 0.9 0.9 0.00 0.00 0.00 27 1012.5
20260504205133 83 87 0.9 1.7 0.00 0.00 0.00 26 1012.6
20260504204631 82 104 1.7 1.7 0.00 0.00 0.00 27 1012.4
20260504204130 81 71 1.7 1.7 0.00 0.00 0.00 27 1012.5
20260504203628 82 36 3.5 3.5 0.00 0.00 0.00 28 1012.4
20260504203125 83 82 1.7 1.7 0.00 0.00 0.00 27 1012.3
20260504202620 83 28 0.9 0.9 0.00 0.00 0.00 26 1012.5
20260504202117 83 90 1.7 2.6 0.00 0.00 0.00 27 1012.6
20260504201614 82 67 0.9 0.9 0.00 0.00 0.00 27 1012.6
20260504201112 82 136 3.5 5.2 0.00 0.00 0.00 27 1012.7
20260504200608 83 82 1.7 2.6 0.00 0.00 0.00 26 1012.7
20260504200105 83 87 0.9 2.6 0.00 0.00 0.00 28 1012.8
20260504195601 83 54 0.9 0.9 0.00 0.00 0.00 26 1012.7
20260504195057 83 65 0.0 0.9 0.00 0.00 0.00 27 1013.0
20260504194554 83 27 1.7 1.7 0.00 0.00 0.00 28 1013.1
20260504194049 83 80 2.6 2.6 0.00 0.00 0.00 27 1013.2
20260504193546 83 72 0.9 0.9 0.00 0.00 0.00 28 1013.1
20260504193045 82 1 0.9 0.9 0.00 0.00 0.00 28 1013.3
20260504192543 81 92 1.7 1.7 0.00 0.00 0.00 28 1013.2
20260504192040 82 178 0.9 1.7 0.00 0.00 0.00 29 1013.2
20260504191538 82 82 0.9 0.9 0.00 0.00 0.00 28 1013.4
20260504191034 82 235 1.7 2.6 0.00 0.00 0.00 30 1013.2
20260504190531 81 24 0.9 0.9 0.00 0.00 0.00 31 1013.4
20260504190026 81 77 1.7 2.6 0.00 0.00 0.00 30 1013.5
20260504185525 80 185 1.7 2.6 0.00 0.00 0.00 30 1013.7
20260504185020 78 301 2.6 2.6 0.00 0.00 0.00 33 1013.8
20260504184515 80 62 1.7 1.7 0.00 0.00 0.00 30 1013.9
20260504184011 79 118 0.9 1.7 0.00 0.00 0.00 30 1013.9
20260504183509 79 81 0.9 0.9 0.00 0.00 0.00 31 1014.0
20260504183007 78 44 1.7 2.6 0.00 0.00 0.00 33 1014.2
20260504182503 77 67 0.9 0.9 0.00 0.00 0.00 34 1014.3
20260504182000 78 329 1.7 2.6 0.00 0.00 0.00 32 1014.3
20260504181457 79 37 1.7 1.7 0.00 0.00 0.00 33 1014.3
20260504180956 79 88 0.9 0.9 0.00 0.00 0.00 30 1014.2
20260504180455 79 107 1.7 2.6 0.00 0.00 0.00 31 1014.7
20260504175953 79 69 1.7 1.7 0.00 0.00 0.00 31 1014.4
20260504175449 78 93 0.9 1.7 0.00 0.00 0.00 33 1014.6
20260504174947 78 182 3.5 3.5 0.00 0.00 0.00 31 1014.5
20260504174444 79 283 2.6 5.2 0.00 0.00 0.00 31 1014.5
20260504173942 80 171 1.7 1.7 0.00 0.00 0.00 33 1014.5
20260504173437 81 48 0.9 1.7 0.00 0.00 0.00 31 1014.5
20260504172936 79 127 0.9 0.9 0.00 0.00 0.00 34 1014.5
20260504172431 78 75 0.9 1.7 0.00 0.00 0.00 33 1014.4
20260504171928 79 65 1.7 1.7 0.00 0.00 0.00 33 1014.8
20260504171425 80 107 1.7 2.6 0.00 0.00 0.00 30 1014.7
20260504170922 79 85 0.9 1.7 0.00 0.00 0.00 32 1014.7
20260504170418 78 170 1.7 2.6 0.00 0.00 0.00 31 1014.8
20260504160337 77 27 0.9 1.7 0.00 0.00 0.00 35 1015.5
20260504150802 72 77 0.9 0.9 0.00 0.00 0.00 41 1016.2
20260504150258 71 88 0.9 0.9 0.00 0.00 0.00 41 1016.1
20260504141229 70 84 0.0 0.9 0.00 0.00 0.00 43 1016.3
20260504140725 69 7 0.9 0.9 0.00 0.00 0.00 44 1016.4
20260504140220 68 80 0.9 0.9 0.00 0.00 0.00 45 1016.3
20260504130649 62 93 0.9 0.9 0.00 0.00 0.00 58 1016.8
20260504130145 62 211 1.7 1.7 0.00 0.00 0.00 58 1016.7
20260504120110 55 45 1.7 1.7 0.00 0.00 0.00 68 1017.0